Location: Kolin
(50.0330°N, 15.2000°E)
Time: 11:04:53
(UTC+02:00)

ISS - Pass Details

Date: 27 May 2021
Orbit: 417 x 422 km, 51.6° (Epoch: 13 June)

Event Time Altitude Azimuth Distance (km) Brightness Sun altitude
Rises 22:14:16 0° 287° (WNW) 2,367 1.1 -10.0°
Reaches altitude 10° 22:16:24 10° 283° (WNW) 1,502 -0.1 -10.2°
Maximum altitude 22:19:41 52° 206° (SSW) 528 -3.5 -10.6°
Enters shadow 22:22:05 17° 133° (SE) 1,151 -2.2 -10.8°
